Tracking 30995 objects as of 7-Jul-2025
HD Live streaming from Space Station
objects crossing your sky now

FENGYUN 1C DEB

Track FENGYUN 1C DEB now!
10-day predictions


NORAD ID: 30656
Int'l Code: 1999-025APN
Perigee: 735.1 km
Apogee: 783.0 km
Inclination: 99.0 °
Period: 99.9 minutes
Semi major axis: 7130 km
RCS: 0.021 m2 (small)
Launch date: May 10, 1999
Source: People's Republic of China (PRC)
Launch site: Taiyaun Space Center, China (TSC)

Note: This is SATELLITE DEBRIS
Your satellite tracking list
Your tracking list is empty




NASA's NSSDC Master Catalog

Two Line Element Set (TLE):
1 30656U 99025APN 25187.41627971  .00006243  00000-0  19036-2 0  9991
2 30656  99.0122 352.1993 0033589 195.2946 164.7229 14.41998746947870
Source of the keplerian elements: AFSPC